Location: ???????
(55.3754°N, 39.3545°E)
Time: 12:05:26
(UTC+00:00)

Cosmos 44 - Pass Details

Date: 14 April 2026
Orbit: 568 x 782 km, 65.1° (Epoch: 10 May)

Event Time Altitude Azimuth Distance (km) Brightness Sun altitude
Exits shadow 19:38:00 32° 98° (E) 1,272 4.3 -21.4°
Drops below altitude 10° 19:41:50 10° 57° (ENE) 2,315 6.0 -21.7°
Sets 19:44:27 0° 48° (NE) 3,263 7.0 -21.8°
